Regional Weather Roundup
Issued by NWS Sioux Falls, SD

Home | Current Version | Previous Version | Text Only | Print | Product List | Glossary On
Versions: 1 2 3 4 5 6 7 8 9 10 11 12 13 14 15 16 17 18 19 20 21 22 23 24 25 26 27 28 29 30 31 32 33 34 35 36 37 38 39 40 41 42 43 44 45 46 47 48 49 50
104
ASUS43 KFSD 241710
RWRFSD

WEATHER ROUNDUP FOR SE SOUTH DAKOTA/SW MINNESOTA/NW IOWA
NATIONAL WEATHER SERVICE SIOUX FALLS SD
1200 PM CDT TUE MAY 24 2016

NOTE: "FAIR" INDICATES FEW OR NO CLOUDS BELOW 12,000 FEET WITH NO
SIGNIFICANT WEATHER AND OR OBSTRUCTIONS TO VISIBILITY.


SDZ038>040-050-052>070-241800-
SOUTHEAST SOUTH DAKOTA

CITY           SKY/WX    TMP DP  RH WIND       PRES   REMARKS
BROOKINGS      SUNNY     69  62  78 S5        29.88R
CHAMBERLAIN    SUNNY     76  53  45 W7        29.87S
HURON          SUNNY     74  55  51 CALM      29.86R
MADISON        FAIR      73  64  73 S3        29.88R
MITCHELL       SUNNY     77  54  44 CALM      29.86R
SIOUX FALLS    MOSUNNY   75  61  61 CALM      29.87S
WINNER         FAIR      74  51  44 W7        29.89R
YANKTON        SUNNY     73  61  64 CALM      29.85S
$$

MNZ071-072-080-081-089-090-097-098-241800-
SOUTHWEST MINNESOTA

CITY           SKY/WX    TMP DP  RH WIND       PRES   REMARKS
FAIRMONT       CLOUDY    73  63  68 SW8       29.90R
JACKSON        MOSUNNY   72  61  68 SW7       29.90S
LUVERNE        SUNNY     72  59  64 S6        29.89R
MARSHALL       PTSUNNY   73  63  70 SE6       29.87S
MONTEVIDEO     SUNNY     81  61  50 SE6       29.87S
PIPESTONE      SUNNY     73  63  68 S3        29.89R
REDWOOD FALLS  SUNNY     75  64  68 SW7       29.87R
TRACY          MOSUNNY   75  64  69 CALM      29.88S
WINDOM         CLOUDY    73  64  73 CALM      29.89S
WORTHINGTON    MOSUNNY   69  64  84 SW8       29.90S
$$

IAZ001>003-012>014-020>022-031-032-NEZ013-014-SDZ071-241800-
NORTHWEST IOWA

CITY           SKY/WX    TMP DP  RH WIND       PRES   REMARKS
CHEROKEE       MOSUNNY   72  66  82 S6        29.89S
DENISON        CLOUDY    70  64  83 VRB6      29.89R
ESTHERVILLE    CLOUDY    72  63  73 SW9       29.89S
LE MARS        CLOUDY    72  66  83 VRB7      29.88S
ORANGE CITY    MOSUNNY   72  66  83 SW5       29.89R
SHELDON        CLOUDY    72  66  83 S8        29.88R
SIOUX CITY     CLOUDY    73  65  75 VRB5      29.88S
SPENCER        MOSUNNY   73  63  70 SW6       29.89S
STORM LAKE     PTSUNNY   72  64  78 SW7       29.91S
$$

ABBREVIATIONS USED IN REMARKS
   TC - TEMPERATURE IN CELSIUS
  WCI - WIND CHILL INDEX
   HX - HEAT INDEX
  VSB - VISIBILITY





USA.gov is the U.S. government's official web portal to all federal, state and local government web resources and services.